Weather History for KPMV - April, 2014

Change the Weather History Date:

Friday, April 11, 2014

  Actual Average (KOFF) Record (KOFF)
Temperature  
Mean Temperature 60 °F -  
Max Temperature 77 °F 59 °F 84 °F (2006)
Min Temperature 43 °F 39 °F 25 °F (2009)
Degree Days  
Heating Degree Days 5    
Growing Degree Days 10 (Base 50)    
Moisture  
Dew Point 19 °F    
Average Humidity 21    
Maximum Humidity 40    
Minimum Humidity 11    
Precipitation  
Precipitation 0.00 in - - ()
Sea Level Pressure  
Sea Level Pressure 29.97 in    
Wind  
Wind Speed 7 mph (South)    
Max Wind Speed 15 mph    
Max Gust Speed 23 mph    
Visibility 10 miles    
Events      
Averages and records for this station are not official NWS values.
T = Trace of Precipitation, MM = Missing Value Source: NWS Daily Summary

Daily Weather History Graph

Daily Weather History Graph

Search for Another Location

Airport or City:

Trip Planner

Search our weather history database for the weather conditions in past years. The results will help you decide how hot, cold, wet, or windy it might be!

Date:

Astronomy

Apr. 11, 2014 Rise Set
Actual Time 6:50 AM CDT 7:59 PM CDT
Civil Twilight 6:22 AM CDT 8:27 PM CDT
Nautical Twilight 5:48 AM CDT 9:01 PM CDT
Astronomical Twilight 5:13 AM CDT 9:36 PM CDT
Moon 4:39 PM CDT (4/11) 4:48 AM CDT (4/11)
Length of Visible Light 14h 04m
Length of Day
13h 08m
Waxing Gibbous, 87% of the Moon is Illuminated
Apr 11
Waxing Gibbous
Apr 15
Full
Apr 22
Last Quarter
Apr 29
New
May 6
First Quarter

Hourly Weather History & Observations

Time (CDT) Temp. Windchill Dew Point Humidity Pressure Visibility Wind Dir Wind Speed Gust Speed Precip Events Conditions
12:15 AM 52.0 °F - 13.1 °F 21% 30.00 in 10.0 mi South 6.9 mph - N/A   Clear
12:35 AM 52.5 °F - 12.4 °F 20% 30.01 in 10.0 mi South 5.8 mph - N/A   Clear
12:55 AM 52.5 °F - 11.8 °F 20% 30.01 in 10.0 mi South 3.5 mph - N/A   Clear
1:15 AM 51.3 °F - 12.4 °F 21% 30.01 in 10.0 mi South 4.6 mph - N/A   Clear
1:35 AM 48.0 °F - 14.7 °F 26% 30.01 in 10.0 mi South 6.9 mph - N/A   Clear
1:55 AM 50.0 °F - 13.5 °F 23% 30.01 in 10.0 mi South 5.8 mph - N/A   Clear
2:15 AM 51.3 °F - 15.1 °F 24% 30.02 in 10.0 mi SSW 6.9 mph - N/A   Mostly Cloudy
2:35 AM 52.7 °F - 15.3 °F 23% 30.02 in 10.0 mi SSW 8.1 mph - N/A   Mostly Cloudy
2:55 AM 53.1 °F - 15.1 °F 22% 30.02 in 10.0 mi SW 6.9 mph - N/A   Scattered Clouds
3:15 AM 52.7 °F - 14.9 °F 22% 30.01 in 10.0 mi SSW 9.2 mph - N/A   Clear
3:35 AM 52.0 °F - 15.3 °F 23% 30.01 in 10.0 mi SSW 9.2 mph - N/A   Clear
3:55 AM 50.2 °F - 15.4 °F 25% 30.01 in 10.0 mi SSW 9.2 mph - N/A   Clear
4:15 AM 49.5 °F - 15.6 °F 26% 30.01 in 10.0 mi SSW 9.2 mph - N/A   Clear
4:35 AM 48.7 °F - 15.6 °F 27% 30.01 in 10.0 mi SSW 5.8 mph - N/A   Clear
4:55 AM 46.0 °F 41.9 °F 16.5 °F 31% 30.00 in 10.0 mi South 8.1 mph - N/A   Clear
5:15 AM 43.9 °F 40.5 °F 17.4 °F 35% 30.00 in 10.0 mi South 5.8 mph - N/A   Clear
5:35 AM 45.5 °F 41.8 °F 17.2 °F 32% 30.01 in 10.0 mi SSW 6.9 mph - N/A   Clear
5:55 AM 47.1 °F - 16.7 °F 30% 30.01 in 10.0 mi SSW 5.8 mph - N/A   Clear
6:15 AM 46.9 °F - 16.9 °F 30% 30.01 in 10.0 mi Calm Calm - N/A   Clear
6:35 AM 46.9 °F - 16.7 °F 30% 30.01 in 10.0 mi Calm Calm - N/A   Clear
6:55 AM 43.5 °F 41.9 °F 18.3 °F 36% 30.01 in 10.0 mi SE 3.5 mph - N/A   Clear
7:15 AM 43.7 °F 42.1 °F 19.2 °F 38% 30.02 in 10.0 mi SSE 3.5 mph - N/A   Clear
7:35 AM 43.3 °F 40.7 °F 20.7 °F 40% 30.03 in 10.0 mi South 4.6 mph - N/A   Clear
7:55 AM 48.2 °F - 21.4 °F 35% 30.04 in 10.0 mi South 6.9 mph - N/A   Mostly Cloudy
8:15 AM 49.5 °F - 21.6 °F 33% 30.04 in 10.0 mi South 9.2 mph - N/A   Scattered Clouds
8:35 AM 54.3 °F - 19.8 °F 26% 30.04 in 10.0 mi South 8.1 mph - N/A   Clear
9:15 AM 60.4 °F - 17.6 °F 19% 30.04 in 10.0 mi South 10.4 mph - N/A   Clear
9:35 AM 62.4 °F - 17.6 °F 18% 30.04 in 10.0 mi SSW 9.2 mph - N/A   Clear
9:55 AM 63.7 °F - 16.7 °F 16% 30.04 in 10.0 mi SSW 10.4 mph - N/A   Clear
10:15 AM 64.4 °F - 16.7 °F 16% 30.05 in 10.0 mi SSW 9.2 mph - N/A   Clear
10:35 AM 67.3 °F - 13.3 °F 12% 30.05 in 10.0 mi SSW 10.4 mph - N/A   Clear
10:55 AM 67.8 °F - 11.5 °F 11% 30.06 in 10.0 mi SSW 12.7 mph - N/A   Clear
11:15 AM 68.5 °F - 12.2 °F 11% 30.06 in 10.0 mi SSW 13.8 mph - N/A   Clear
11:35 AM 69.3 °F - 12.6 °F 11% 30.06 in 10.0 mi SSW 15.0 mph - N/A   Clear
11:55 AM 70.7 °F - 13.5 °F 11% 30.04 in 10.0 mi SW 8.1 mph - N/A   Clear
12:15 PM 71.1 °F - 14.5 °F 11% 30.04 in 10.0 mi SW 11.5 mph - N/A   Clear
12:35 PM 72.3 °F - 15.1 °F 11% 30.02 in 10.0 mi SSW 10.4 mph 16.1 mph N/A   Clear
12:55 PM 72.9 °F - 15.4 °F 11% 30.02 in 10.0 mi SSW 11.5 mph 16.1 mph N/A   Clear
1:15 PM 73.4 °F - 16.2 °F 11% 30.01 in 10.0 mi SSW 4.6 mph - N/A   Clear
1:35 PM 73.6 °F - 17.1 °F 12% 30.00 in 10.0 mi SW 10.4 mph - N/A   Clear
1:55 PM 74.1 °F - 17.6 °F 12% 29.99 in 10.0 mi SSW 9.2 mph - N/A   Clear
2:15 PM 74.7 °F - 18.3 °F 12% 29.98 in 10.0 mi Calm Calm - N/A   Clear
2:35 PM 75.9 °F - 19.4 °F 12% 29.97 in 10.0 mi SSW 11.5 mph 17.3 mph N/A   Clear
2:55 PM 75.6 °F - 20.1 °F 13% 29.96 in 10.0 mi SSW 8.1 mph - N/A   Clear
3:15 PM 76.1 °F - 19.4 °F 12% 29.94 in 10.0 mi SSE 6.9 mph - N/A   Clear
3:35 PM 76.1 °F - 20.1 °F 12% 29.93 in 10.0 mi West 9.2 mph - N/A   Clear
3:55 PM 76.5 °F - 20.5 °F 12% 29.92 in 10.0 mi SSW 10.4 mph 18.4 mph N/A   Clear
4:15 PM 77.2 °F - 20.8 °F 12% 29.92 in 10.0 mi SSW 11.5 mph 16.1 mph N/A   Clear
4:35 PM 76.8 °F - 20.7 °F 12% 29.91 in 10.0 mi WSW 3.5 mph - N/A   Clear
4:55 PM 77.9 °F - 20.8 °F 12% 29.90 in 10.0 mi SSW 4.6 mph - N/A   Clear
5:15 PM 77.5 °F - 21.2 °F 12% 29.88 in 10.0 mi SSE 11.5 mph 23.0 mph N/A   Clear
5:35 PM 77.0 °F - 21.2 °F 12% 29.89 in 10.0 mi SSE 10.4 mph - N/A   Clear
5:55 PM 76.5 °F - 21.7 °F 13% 29.88 in 10.0 mi SSW 12.7 mph 17.3 mph N/A   Clear
6:15 PM 76.3 °F - 21.0 °F 13% 29.88 in 10.0 mi SSE 10.4 mph - N/A   Clear
6:35 PM 75.6 °F - 21.4 °F 13% 29.88 in 10.0 mi SSE 11.5 mph - N/A   Clear
6:55 PM 74.3 °F - 22.1 °F 14% 29.87 in 10.0 mi SSE 8.1 mph - N/A   Clear
7:15 PM 73.4 °F - 23.7 °F 16% 29.87 in 10.0 mi SSE 9.2 mph - N/A   Clear
7:35 PM 72.1 °F - 24.1 °F 17% 29.87 in 10.0 mi SSE 6.9 mph - N/A   Clear
7:55 PM 70.2 °F - 25.3 °F 19% 29.86 in 10.0 mi SSE 9.2 mph - N/A   Clear
8:15 PM 68.5 °F - 25.7 °F 20% 29.86 in 10.0 mi SSE 6.9 mph - N/A   Clear
8:35 PM 67.6 °F - 26.6 °F 21% 29.87 in 10.0 mi SSE 6.9 mph - N/A   Clear
8:55 PM 66.4 °F - 27.1 °F 23% 29.87 in 10.0 mi SSE 6.9 mph - N/A   Clear
9:15 PM 66.6 °F - 27.5 °F 23% 29.87 in 10.0 mi SSE 6.9 mph - N/A   Clear
9:35 PM 65.7 °F - 28.4 °F 25% 29.88 in 10.0 mi SSE 5.8 mph - N/A   Clear
9:55 PM 64.9 °F - 29.1 °F 26% 29.88 in 10.0 mi SE 6.9 mph - N/A   Clear
10:15 PM 62.8 °F - 29.8 °F 29% 29.87 in 10.0 mi SSE 6.9 mph - N/A   Clear
10:35 PM 61.3 °F - 29.3 °F 30% 29.87 in 10.0 mi SE 8.1 mph - N/A   Clear
10:55 PM 61.7 °F - 29.3 °F 29% 29.86 in 10.0 mi SSE 9.2 mph - N/A   Clear
11:15 PM 61.5 °F - 29.8 °F 30% 29.86 in 10.0 mi SE 8.1 mph - N/A   Clear
11:35 PM 61.7 °F - 29.3 °F 29% 29.85 in 10.0 mi SE 9.2 mph - N/A   Clear
11:55 PM 61.7 °F - 29.5 °F 30% 29.84 in 10.0 mi SE 11.5 mph - N/A   Clear